Location: *
(48.8667°N, 2.3331°E)
Time: 09:28:27
(UTC+00:00)

Cosmos 2061 Rocket - Pass Details

Date: 18 August 2020
Orbit: 966 x 1012 km, 82.9° (Epoch: 23 September)

Event Time Altitude Azimuth Distance (km) Brightness Sun altitude
Exits shadow 22:17:54 22° 221° (SW) 1,964 5.4 -24.8°
Maximum altitude 22:21:40 48° 286° (WNW) 1,242 4.7 -25.1°
Drops below altitude 10° 22:27:40 10° 0° (N) 2,723 7.2 -25.5°
Sets 22:30:18 0° 6° (N) 3,677 8.0 -25.7°
